Regional Weather Roundup
Issued by NWS Binghamton, NY

Home | Current Version | Previous Version | Text Only | Print | Product List | Glossary On
Versions: 1 2 3 4 5 6 7 8 9 10 11 12 13 14 15 16 17 18 19 20 21 22 23 24 25 26 27 28 29 30 31 32 33 34 35 36 37 38 39 40 41 42 43 44 45 46 47 48 49 50
000
ASUS41 KBGM 251310
RWRBGM
RWRBGM
BINGHAMTON REGIONAL WEATHER ROUNDUP
NATIONAL WEATHER SERVICE BINGHAMTON NY
900 AM EDT SAT APR 25 2015

Note: "fair" indicates few or no clouds below 12,000 feet with no
significant weather and/or obstructions to visibility.

* = Station(s) that does not report precipitation, such as rain,
snow, etc, also no thunder or fog.

!NYZ009-015>018-022>025-036-037-044>046-055>057-062-251400
...CENTRAL NEW YORK...

CITY           SKY/WX    TMP DP  RH WIND       PRES   REMARKS
BINGHAMTON     SUNNY     33  24  69 NW7       29.88F WCI  27
CORTLAND       FAIR      34  28  80 NW6       29.92F WCI  29
DANSVILLE      SUNNY     38  23  55 CALM      29.97F
ELMIRA         SUNNY     38  23  55 W5        29.93F WCI  34
ITHACA         MOSUNNY   34  25  70 NW9       29.94S WCI  27
MONTICELLO     SUNNY     34  23  64 NW12      29.87S WCI  25
PENN YAN       SUNNY     36  23  59 N9        29.94F WCI  29
ROME           SUNNY     34  23  64 W8        29.93F WCI  27
SYRACUSE       MOSUNNY   37  29  72 W5        29.94F WCI  33
$$

!PAZ038>040-043-044-047-048-072-251400
...NORTHEAST PENNSYLVANIA...

CITY           SKY/WX    TMP DP  RH WIND       PRES   REMARKS
HAZLETON       PTSUNNY   34  21  60 NW6       29.92S WCI  29
SCRANTON       SUNNY     39  23  52 NW8       29.91S WCI  33
TOWANDA*       SUNNY     39  21  48 MISG      29.95S
$$
&&
KEY
WCI = WIND CHILL INDEX
VSB = VISIBILITY
HX  = HEAT INDEX
$$


USA.gov is the U.S. government's official web portal to all federal, state and local government web resources and services.